| time (UTC) | temp C | wind direction | speed KPH | gust KPH | rain 1hr cm | rain 24hr cm | rain mn cm | humidity % | barometer mb |
| 20260508064534 | 8 | 225 | 0.0 | 0.0 | 0.00 | 0.10 | 0.10 | 93 | 1015.3 |
| 20260508063016 | 8 | 225 | 0.0 | 0.0 | 0.00 | 0.10 | 0.10 | 93 | 1015.4 |
| 20260508060013 | 9 | 225 | 0.0 | 0.0 | 0.00 | 0.13 | 0.10 | 93 | 1015.4 |
| 20260508054526 | 10 | 225 | 0.0 | 0.0 | 0.00 | 0.13 | 0.10 | 93 | 1015.3 |
| 20260508053010 | 10 | 225 | 0.0 | 0.0 | 0.00 | 0.13 | 0.10 | 93 | 1015.4 |
| 20260508050009 | 10 | 225 | 0.0 | 0.0 | 0.00 | 0.13 | 0.10 | 93 | 1015.2 |
| 20260508044505 | 10 | 225 | 0.0 | 0.0 | 0.00 | 0.13 | 0.10 | 93 | 1015.2 |
| 20260508043003 | 10 | 225 | 0.0 | 0.0 | 0.00 | 0.13 | 0.10 | 93 | 1014.7 |
| 20260508040112 | 10 | 225 | 0.0 | 0.0 | 0.00 | 0.15 | 0.10 | 93 | 1014.7 |
| 20260508034559 | 10 | 225 | 0.0 | 0.0 | 0.00 | 0.15 | 0.10 | 93 | 1014.5 |
| 20260508033057 | 11 | 225 | 0.0 | 0.0 | 0.00 | 0.15 | 0.10 | 93 | 1014.6 |
| 20260508030057 | 11 | 225 | 0.0 | 0.0 | 0.00 | 0.18 | 0.10 | 93 | 1014.5 |
| 20260508024553 | 11 | 225 | 0.0 | 0.0 | 0.03 | 0.18 | 0.10 | 93 | 1014.3 |
| 20260508023050 | 11 | 225 | 0.0 | 0.0 | 0.03 | 0.18 | 0.10 | 94 | 1014.1 |
| 20260508020053 | 12 | 225 | 0.0 | 0.0 | 0.03 | 0.18 | 0.10 | 94 | 1013.5 |
| 20260508014545 | 12 | 225 | 0.0 | 0.0 | 0.03 | 0.18 | 0.10 | 94 | 1013.1 |
| 20260508013042 | 12 | 225 | 0.0 | 0.0 | 0.00 | 0.15 | 0.08 | 94 | 1012.9 |
| 20260508010040 | 12 | 225 | 0.0 | 0.0 | 0.00 | 0.15 | 0.08 | 94 | 1012.5 |
| 20260508004547 | 12 | 225 | 0.0 | 0.0 | 0.00 | 0.15 | 0.08 | 94 | 1012.3 |
| 20260508003046 | 12 | 225 | 0.0 | 0.0 | 0.00 | 0.15 | 0.08 | 94 | 1012.5 |
| 20260508000036 | 13 | 225 | 0.0 | 0.0 | 0.00 | 0.15 | 0.08 | 94 | 1012.3 |
| 20260507234545 | 13 | 225 | 0.0 | 0.0 | 0.00 | 0.15 | 0.08 | 94 | 1011.9 |
| 20260507233038 | 13 | 225 | 0.0 | 0.0 | 0.00 | 0.15 | 0.08 | 94 | 1011.9 |
| 20260507230032 | 13 | 225 | 0.0 | 0.0 | 0.00 | 0.15 | 0.08 | 94 | 1011.2 |
| 20260507224532 | 13 | 225 | 0.0 | 0.0 | 0.00 | 0.15 | 0.08 | 94 | 1011.1 |
| 20260507223031 | 13 | 225 | 0.0 | 0.0 | 0.00 | 0.15 | 0.08 | 94 | 1010.9 |
| 20260507220037 | 13 | 225 | 0.0 | 0.0 | 0.00 | 0.15 | 0.08 | 94 | 1010.6 |
| 20260507214530 | 13 | 225 | 0.0 | 0.0 | 0.00 | 0.15 | 0.08 | 94 | 1010.7 |
| 20260507213033 | 13 | 225 | 0.0 | 0.0 | 0.00 | 0.15 | 0.08 | 94 | 1010.3 |
| 20260507211632 | 13 | 225 | 0.0 | 0.0 | 0.00 | 0.15 | 0.08 | 94 | 1010.5 |
| 20260507210033 | 13 | 223 | 0.0 | 0.0 | 0.00 | 0.15 | 0.08 | 94 | 1010.3 |
| 20260507204531 | 13 | 223 | 0.0 | 0.0 | 0.03 | 0.15 | 0.08 | 93 | 1010.5 |
| 20260507203030 | 13 | 223 | 0.0 | 0.0 | 0.03 | 0.15 | 0.08 | 93 | 1010.2 |
| 20260507201631 | 13 | 223 | 0.0 | 0.0 | 0.03 | 0.15 | 0.08 | 93 | 1010.6 |
| 20260507200027 | 13 | 223 | 0.0 | 0.0 | 0.03 | 0.15 | 0.08 | 93 | 1010.5 |
| 20260507194534 | 14 | 223 | 0.0 | 0.0 | 0.00 | 0.13 | 0.05 | 93 | 1010.7 |
| 20260507193025 | 14 | 219 | 0.0 | 0.0 | 0.00 | 0.13 | 0.05 | 93 | 1010.3 |
| 20260507190036 | 15 | 219 | 0.0 | 0.0 | 0.00 | 0.13 | 0.05 | 93 | 1010.3 |
| 20260507184529 | 15 | 219 | 0.0 | 0.0 | 0.00 | 0.13 | 0.05 | 93 | 1010.4 |
| 20260507183020 | 15 | 219 | 0.0 | 0.0 | 0.00 | 0.13 | 0.05 | 93 | 1010.6 |
| 20260507180019 | 16 | 244 | 0.0 | 0.0 | 0.00 | 0.13 | 0.05 | 93 | 1010.3 |
| 20260507174514 | 16 | 244 | 0.0 | 0.0 | 0.00 | 0.13 | 0.05 | 94 | 1010.6 |
| 20260507173029 | 17 | 244 | 0.0 | 0.0 | 0.00 | 0.13 | 0.05 | 94 | 1010.3 |
| 20260507171610 | 17 | 244 | 0.0 | 0.0 | 0.00 | 0.13 | 0.05 | 94 | 1010.4 |
| 20260507170016 | 17 | 244 | 0.0 | 0.0 | 0.00 | 0.13 | 0.05 | 94 | 1010.5 |
| 20260507164519 | 17 | 244 | 0.0 | 0.0 | 0.00 | 0.13 | 0.05 | 94 | 1009.8 |
| 20260507163008 | 17 | 244 | 0.0 | 0.0 | 0.00 | 0.13 | 0.05 | 94 | 1009.6 |
| 20260507161607 | 17 | 244 | 0.0 | 0.0 | 0.00 | 0.13 | 0.05 | 95 | 1010.0 |
| 20260507160005 | 17 | 244 | 0.0 | 0.0 | 0.00 | 0.13 | 0.05 | 95 | 1010.0 |
| 20260507154505 | 17 | 231 | 0.0 | 0.0 | 0.00 | 0.13 | 0.05 | 95 | 1010.6 |
| 20260507153003 | 17 | 231 | 0.0 | 0.0 | 0.00 | 0.13 | 0.05 | 95 | 1010.5 |
| 20260507151607 | 17 | 231 | 0.0 | 0.0 | 0.03 | 0.13 | 0.05 | 95 | 1010.8 |
| 20260507150003 | 17 | 231 | 0.0 | 0.0 | 0.03 | 0.13 | 0.05 | 95 | 1011.0 |
| 20260507144502 | 17 | 231 | 0.0 | 0.0 | 0.03 | 0.13 | 0.05 | 95 | 1009.9 |
| 20260507143001 | 17 | 231 | 0.0 | 0.0 | 0.03 | 0.13 | 0.05 | 95 | 1010.5 |
| 20260507140002 | 17 | 231 | 0.0 | 0.0 | 0.00 | 0.10 | 0.03 | 94 | 1010.2 |
| 20260507134501 | 17 | 231 | 0.0 | 0.0 | 0.00 | 0.10 | 0.03 | 94 | 1009.8 |
| 20260507133100 | 17 | 231 | 0.0 | 0.0 | 0.00 | 0.10 | 0.03 | 94 | 1010.1 |
| 20260507133001 | 17 | 231 | 0.0 | 0.0 | 0.00 | 0.10 | 0.03 | 94 | 1010.2 |
| 20260507131700 | 17 | 231 | 0.0 | 0.0 | 0.00 | 0.10 | 0.03 | 94 | 1010.7 |
| 20260507130058 | 17 | 231 | 0.0 | 0.0 | 0.00 | 0.10 | 0.03 | 94 | 1011.4 |
| 20260507124604 | 17 | 231 | 0.0 | 0.0 | 0.00 | 0.10 | 0.03 | 94 | 1011.9 |
| 20260507123056 | 17 | 231 | 0.0 | 0.0 | 0.00 | 0.10 | 0.03 | 94 | 1011.4 |
| 20260507121657 | 17 | 231 | 0.0 | 0.0 | 0.03 | 0.10 | 0.03 | 94 | 1011.0 |
| 20260507120055 | 17 | 231 | 0.0 | 0.0 | 0.03 | 0.10 | 0.03 | 94 | 1011.1 |
| 20260507114608 | 17 | 231 | 0.0 | 0.0 | 0.03 | 0.10 | 0.03 | 94 | 1010.8 |
| 20260507113125 | 17 | 230 | 0.0 | 0.0 | 0.03 | 0.10 | 0.03 | 94 | 1010.7 |
| 20260507111655 | 17 | 230 | 0.0 | 0.0 | 0.00 | 0.08 | 0.00 | 94 | 1010.6 |
| 20260507110053 | 17 | 230 | 0.0 | 0.0 | 0.00 | 0.08 | 0.00 | 94 | 1010.8 |
| 20260507104552 | 17 | 230 | 0.0 | 0.0 | 0.00 | 0.08 | 0.00 | 94 | 1010.6 |
| 20260507103055 | 17 | 230 | 0.0 | 0.0 | 0.00 | 0.08 | 0.00 | 94 | 1010.5 |
| 20260507101652 | 17 | 230 | 0.0 | 0.0 | 0.00 | 0.08 | 0.00 | 94 | 1010.6 |
| 20260507100051 | 17 | 230 | 0.0 | 0.0 | 0.00 | 0.08 | 0.00 | 94 | 1010.7 |
| 20260507094550 | 17 | 230 | 0.0 | 0.0 | 0.00 | 0.08 | 0.00 | 94 | 1010.9 |
| 20260507093051 | 17 | 230 | 0.0 | 0.0 | 0.00 | 0.08 | 0.00 | 94 | 1010.6 |
| 20260507091653 | 17 | 230 | 0.0 | 0.0 | 0.00 | 0.08 | 0.00 | 94 | 1010.9 |
| 20260507090049 | 17 | 230 | 0.0 | 0.0 | 0.00 | 0.08 | 0.00 | 94 | 1010.6 |
| 20260507084557 | 17 | 230 | 0.0 | 0.0 | 0.00 | 0.08 | 0.00 | 94 | 1009.8 |
| 20260507083047 | 17 | 208 | 0.0 | 0.0 | 0.00 | 0.08 | 0.00 | 93 | 1010.5 |
| 20260507081646 | 17 | 208 | 0.0 | 0.0 | 0.00 | 0.08 | 0.00 | 93 | 1010.4 |
| 20260507080045 | 17 | 208 | 0.0 | 0.0 | 0.00 | 0.08 | 0.00 | 93 | 1010.4 |
| 20260507074549 | 17 | 207 | 0.0 | 0.0 | 0.00 | 0.08 | 0.00 | 93 | 1010.8 |
| 20260507073041 | 17 | 207 | 0.0 | 0.0 | 0.00 | 0.08 | 0.00 | 93 | 1011.2 |
| 20260507071542 | 17 | 207 | 0.0 | 0.0 | 0.00 | 0.08 | 0.00 | 92 | 1011.2 |
| 20260507070043 | 17 | 207 | 0.0 | 0.0 | 0.00 | 0.08 | 0.08 | 92 | 1011.4 |